Shearwater — 3ESK5 — position and weather

sailwx.info

Track history (hours):
 
Tides and Currents Weather Stations Pressure Air Temp Water Temp Dewpoint Dewpoint Depression Visibility Wind Speed Wind Dir Waves Ship Positions

Shearwater

Last reported at 2017-Feb-26 12:33 UTC. Time now 2017-Feb-26 13:01 UTC.
Position N 35°06' E 139°44'.

Length 210 m; draft 7.7 m.

Type: Cargo ship. MMSI: 370338000.

Date/timePositionNaut miles runAvg speedWind from/ knotsBaromVisibWave heightAir tempDewpointWater temp
2017-Feb-26 12:33N 35°06' E 139°44'1111.1
2017-Feb-26 11:33N 35°17' E 139°45'1110.6
2017-Feb-26 10:34N 35°28' E 139°48'9 8.6
2017-Feb-26 09:31N 35°32' E 139°58'0 0.2
2017-Feb-26 08:31N 35°32' E 139°58'0 0.1
2017-Feb-26 07:31N 35°32' E 139°58'0 0.0
2017-Feb-26 06:31N 35°32' E 139°58'0 0.0
2017-Feb-26 05:31N 35°32' E 139°58'0 0.5
2017-Feb-26 04:33N 35°32' E 139°57'8 8.5
2017-Feb-26 03:33N 35°27' E 139°49'1110.7
2017-Feb-26 02:33N 35°16' E 139°46'9 8.9
2017-Feb-26 01:33N 35°07' E 139°46'8 7.8
2017-Feb-26 00:33N 35°00' E 139°42'9 9.4
2017-Feb-25 23:33N 34°51' E 139°46'19 8.9
2017-Feb-25 21:27N 34°51' E 140°09'2411.2
2017-Feb-25 19:20N 35°04' E 140°33'  
Track history (hours):
 
Tides and Currents Weather Stations Pressure Air Temp Water Temp Dewpoint Dewpoint Depression Visibility Wind Speed Wind Dir Waves Ship Positions

Shearwater

Last reported at 2017-Feb-26 12:33 UTC. Time now 2017-Feb-26 13:01 UTC.
Position N 35°06' E 139°44'.

Length 210 m; draft 7.7 m.

Type: Cargo ship. MMSI: 370338000.

Date/timePositionNaut miles runAvg speedWind from/ knotsBaromVisibWave heightAir tempDewpointWater temp
2017-Feb-26 12:33N 35°06' E 139°44'1111.1
2017-Feb-26 11:33N 35°17' E 139°45'1110.6
2017-Feb-26 10:34N 35°28' E 139°48'9 8.6
2017-Feb-26 09:31N 35°32' E 139°58'0 0.2
2017-Feb-26 08:31N 35°32' E 139°58'0 0.1
2017-Feb-26 07:31N 35°32' E 139°58'0 0.0
2017-Feb-26 06:31N 35°32' E 139°58'0 0.0
2017-Feb-26 05:31N 35°32' E 139°58'0 0.5
2017-Feb-26 04:33N 35°32' E 139°57'8 8.5
2017-Feb-26 03:33N 35°27' E 139°49'1110.7
2017-Feb-26 02:33N 35°16' E 139°46'9 8.9
2017-Feb-26 01:33N 35°07' E 139°46'8 7.8
2017-Feb-26 00:33N 35°00' E 139°42'9 9.4
2017-Feb-25 23:33N 34°51' E 139°46'19 8.9
2017-Feb-25 21:27N 34°51' E 140°09'2411.2
2017-Feb-25 19:20N 35°04' E 140°33'  

Dump ship's entire track history